Regional Weather Roundup
Issued by NWS

Home | Current Version | Previous Version | Text Only | Print | Product List | Glossary On
Versions: 1 2 3 4 5 6 7 8 9 10 11 12 13 14 15 16 17 18 19 20 21 22 23 24 25 26
000
ASUS45 KCYS 140010
RWRWY

WYOMING REGIONAL WEATHER ROUNDUP
NATIONAL WEATHER SERVICE CHEYENNE WY
500 PM MST WED DEC 13 2017

NOTE:  "FAIR" INDICATES FEW OR NO CLOUDS BELOW 12,000 FEET
WITH NO SIGNIFICANT WEATHER AND/OR OBSTRUCTIONS TO VISIBILITY.

WYZ001-140100-
YELLOWSTONE NATIONAL PARK

CITY           SKY/WX    TMP DP  RH WIND       PRES   REMARKS
LK YELLOWSTONE   N/A     22  20  92 CALM      30.18S
6HR MIN TEMP:  20; 6HR MAX TEMP:  23; 6HR PCP:  0.13;

W YELLOWSTONE  NOT AVBL

$$
WYZ002>013-054>058-071-098>099-140100-
NORTHERN WYOMING

CITY           SKY/WX    TMP DP  RH WIND       PRES   REMARKS
JACKSON        LGT SNOW  27  24  89 N3        30.17S FOG
CODY           LGT SNOW  31  29  92 N3        30.21R FOG
GREYBULL       CLOUDY    36  32  85 NW18      30.17R WCI  26
6HR MIN TEMP:  33; 6HR MAX TEMP:  41;

WORLAND        CLOUDY    36  30  79 NW13      30.18R WCI  27
6HR MIN TEMP:  36; 6HR MAX TEMP:  41;

SHERIDAN       CLOUDY    37  22  54 NW7       30.16R WCI  32
6HR MIN TEMP:  37; 6HR MAX TEMP:  47;

BUFFALO        MOCLDY    39  20  46 NW20G31   30.13R WCI  29
6HR MIN TEMP:  39; 6HR MAX TEMP:  48;

GILLETTE       FAIR      37  18  46 NW14      30.11R WCI  28
6HR MIN TEMP:  36; 6HR MAX TEMP:  45;

HULETT         CLOUDY    36  25  64 NW3       30.10S
NEWCASTLE      FAIR      34  21  60 NW13      30.08R WCI  25

$$
WYZ014>020-022>026-101>103-140100-
CENTRAL WYOMING

CITY           SKY/WX    TMP DP  RH WIND       PRES   REMARKS
BIG PINEY      CLOUDY    32  19  58 N10       30.11S WCI  24
6HR MIN TEMP:  32; 6HR MAX TEMP:  37;

PINEDALE       CLOUDY    30  23  74 W13       30.09S WCI  20
DUBOIS         CLOUDY    32  21  64 W10       30.10S WCI  24
LANDER         LGT SNOW  31  30  96 N6        30.15R VSB 3/4 WCI  25
6HR MIN TEMP:  31; 6HR MAX TEMP:  41; 6HR PCP:  0.03;

RIVERTON       LGT SNOW  31  30  96 N7        30.16S FOG     WCI  24
6HR MIN TEMP:  31; 6HR MAX TEMP:  42; 6HR PCP:  0.03;

CASPER         CLOUDY    36  23  59 NW14      30.12R WCI  27
6HR MIN TEMP:  36; 6HR MAX TEMP:  45;

DOUGLAS        FAIR      39  19  44 NW10      30.09R WCI  32
6HR MIN TEMP:  39; 6HR MAX TEMP:  49;


$$
WYZ021-027>030-104>119-140100-
SOUTHERN WYOMING

CITY           SKY/WX    TMP DP  RH WIND       PRES   REMARKS
EVANSTON       LGT SNOW  28  26  92 SW13      30.15S FOG     WCI  17
6HR MIN TEMP:  28; 6HR MAX TEMP:  40; 6HR PCP:  0.01;

FORT BRIDGER   CLOUDY    36  20  53 W17       30.16R WCI  26
ROCK SPRINGS   CLOUDY    34  15  46 N18       30.09R WCI  23
6HR MIN TEMP:  34; 6HR MAX TEMP:  44;

DIXON          CLOUDY    35  24  65 CALM      30.10S
RAWLINS        CLOUDY    35  19  52 W12       30.10R WCI  27
6HR MIN TEMP:  35; 6HR MAX TEMP:  42;

SARATOGA       CLOUDY    34  19  55 NW7       30.09R WCI  28
LARAMIE        CLOUDY    36  12  37 N12       30.04S WCI  28
6HR MIN TEMP:  36; 6HR MAX TEMP:  44;

CHEYENNE       CLOUDY    40  13  33 VRB3      30.05R
6HR MIN TEMP:  40; 6HR MAX TEMP:  47;

TORRINGTON     MOCLDY    45  15  30 NW12      30.04R
6HR MIN TEMP:  45; 6HR MAX TEMP:  51;

PINE BLUFFS    CLOUDY    41  12  30 MISG      30.05R

$$




USA.gov is the U.S. government's official web portal to all federal, state and local government web resources and services.